[[{"header":{"parameterUnit":"m.s-1","parameterCategory":1,"la1":30.2991,"la2":30.254,"lo1":-89.0895,"lo2":-89.0444,"dy":0.0017,"dx":0.0017,"nx":28,"ny":28,"refTime":"2024-10-14T03:00:00:Z","depth":0,"parameterNumber":2,"parameterNumberName":"U-component_of_WINDS"},"data":[0,0,0,0,0,0,0,0,0,0,0,0,0,0,0,0,0,0,0,0,0,0,0,0,0,0,0,0,0,0,0,0,0,0,0,0,0,0,0,0,0,0,0,0,0,0,0,0,0,0,0,0,0,0,0,0,0,0,3.544,3.5442,0,3.5636,3.5638,3.564,3.5643,3.564,3.5638,3.5635,3.5839,3.5846,3.5854,0,0,0,0,0,0,0,0,0,0,0,0,0,3.507,3.5077,3.544,3.5442,3.5445,3.5635,3.5638,3.5641,3.5643,3.564,3.5637,3.5634,3.5836,3.5845,3.5855,0,0,0,0,0,0,0,0,0,0,0,0,0,3.5245,3.5079,3.5439,3.5469,3.5473,3.5635,3.5638,3.5641,3.5644,3.564,3.5636,3.5633,3.5833,3.5844,3.5856,3.6002,0,0,3.5891,3.5896,0,0,0,0,0,0,0,0,3.5235,3.5259,3.5462,3.5467,3.5472,3.5611,3.5582,3.5762,3.5645,3.5579,3.5635,3.5631,3.5766,3.5783,3.5828,3.6011,3.602,3.5892,3.5899,3.5904,3.5908,0,0,0,0,0,0,0,3.5223,3.525,3.5517,3.5465,3.5471,3.5473,3.5494,3.5616,3.5691,3.5585,3.5585,3.5608,3.5768,3.5817,3.5833,3.6023,3.5892,3.5902,3.591,3.5914,3.6336,3.634,0,0,0,0,0,0,3.5205,3.524,3.5511,3.5523,3.5342,3.5483,3.5506,3.557,3.569,3.5704,3.5611,3.5608,3.5799,3.5819,3.584,3.6018,3.5904,3.5915,3.5922,3.6332,3.6337,3.6342,0,0,0,0,0,0,3.5197,3.5229,3.5503,3.5382,3.5417,3.5493,3.5565,3.5576,3.5624,3.571,3.5723,3.5647,3.5797,3.5824,3.5961,3.6025,3.592,3.5931,3.6327,3.6334,3.634,3.6376,0,0,0,0,0,0,3.5186,3.5226,3.5281,3.5383,3.5423,3.562,3.5569,3.5583,3.5644,3.5641,3.5747,3.5761,3.5796,3.5944,3.5973,3.604,3.594,3.6322,3.633,3.6338,3.637,3.6383,3.6395,0,0,0,0,0,3.5173,3.5285,3.5284,3.5317,3.5494,3.5624,3.5647,3.5684,3.5649,3.5706,3.5761,3.5758,3.6014,3.5958,3.5991,3.6062,3.6318,3.6328,3.6337,3.6364,3.6381,3.6395,0,0,0,0,0,0,3.5189,3.5298,3.5299,3.5447,3.5526,3.5624,3.5697,3.5701,3.5792,3.5786,3.5829,3.5853,3.599,3.604,3.5976,3.6209,3.6162,3.6178,3.6171,3.6188,3.62,3.6185,3.595,0,0,0,0,0,3.521,3.5306,3.5396,3.5518,3.5558,3.5621,3.5679,3.57,3.5784,3.5818,3.5883,3.5966,3.6065,3.6129,3.6225,3.6377,3.6401,3.6443,3.6455,3.6465,3.6478,3.6562,3.6582,3.6373,3.6373,3.6373,0,0,3.5254,3.5326,3.5383,3.5523,3.5587,3.5686,3.5649,3.5755,3.5828,3.5835,3.5968,3.6019,3.6114,3.6259,3.6327,3.6305,3.6541,3.6477,3.6484,3.6493,3.6574,3.6594,3.6611,3.638,3.6379,3.6378,0,0,3.5385,3.5448,3.5556,3.5621,3.5718,3.5759,3.5785,3.5883,3.5917,3.6051,3.6058,3.6147,3.6317,3.6384,3.644,3.6597,3.6597,3.6627,3.6692,3.6773,3.679,3.6805,3.686,3.6879,3.664,3.6641,3.6641,0,3.5427,3.5575,3.5612,3.5718,3.5779,3.5789,3.5899,3.596,3.6084,3.6126,3.61,3.6314,3.6378,3.6539,3.6577,3.6623,3.6654,3.6615,3.6784,3.68,3.6814,3.6867,3.6888,3.6644,3.6643,3.6643,3.6643,0,3.5623,3.5725,3.5801,3.5919,3.5989,3.6097,3.6151,3.6217,3.6233,3.6277,3.6415,3.6493,3.6604,3.6644,3.6662,3.6809,3.6792,3.6775,3.6728,3.6836,3.6887,3.6907,3.6648,3.6647,3.6646,3.6645,0,0,3.5769,3.5905,3.5932,3.5986,3.6094,3.6174,3.6283,3.6391,3.6447,3.6532,3.6624,3.6768,3.6753,3.6817,3.6842,3.6913,3.7032,3.6888,3.6891,3.6911,3.7198,3.7209,3.7232,3.7033,3.7037,3.704,3.719,0,3.591,3.6101,3.6138,3.6304,3.64,3.641,3.6505,3.6581,3.6626,3.6714,3.6763,3.6864,3.6837,3.6875,3.6947,3.7002,3.709,3.6992,3.7119,3.7123,3.7094,3.7259,3.7272,3.7409,3.721,3.7213,3.7216,0,3.61,3.6189,3.6365,3.6459,3.6501,3.6585,3.6687,3.6771,3.6858,3.6886,3.6957,3.6974,3.7088,3.7036,3.7194,3.7126,3.7181,3.7216,3.7222,3.7235,3.7175,3.7275,3.7454,3.7474,3.7247,3.7245,3.7243,0,3.6188,3.6352,3.6478,3.6524,3.6637,3.6696,3.6746,3.683,3.6893,3.6983,3.7024,3.7126,3.7182,3.7262,3.7306,3.7264,3.746,3.7412,3.7486,3.7485,3.7527,3.7523,3.7715,3.7563,3.7563,3.7562,3.7562,0,3.6341,3.6448,3.6519,3.6596,3.6717,3.6758,3.6877,3.6926,3.7001,3.7089,3.7105,3.7188,3.7241,3.7332,3.7368,3.7493,3.7518,3.7544,3.7552,3.7542,3.7538,3.7577,3.7569,3.7568,3.7567,3.7566,3.7565,0,3.6459,3.6511,3.6649,3.6745,3.6772,3.6856,3.6939,3.7015,3.706,3.7171,3.7199,3.727,3.7377,3.7429,3.7563,3.7587,3.7728,3.7731,3.7698,3.7701,3.7772,3.7764,3.7995,3.8028,3.7854,3.7856,3.7857,0,3.6553,3.6636,3.6741,3.68,3.6852,3.6948,3.7011,3.7056,3.7122,3.7228,3.7291,3.7399,3.7487,3.7659,3.7722,3.7825,3.7829,3.7903,3.7845,3.7832,3.783,3.7824,3.7832,3.7913,3.7915,3.7916,3.7917,0,3.6715,3.6736,3.6827,3.6927,3.7002,3.7084,3.7163,3.7212,3.7269,3.7342,3.7452,3.752,3.7656,3.7763,3.787,3.7923,3.793,3.7935,3.7958,3.7948,3.7925,3.7938,3.7726,3.793,3.7928,3.7928,3.7927,3.7926,3.6824,3.6897,3.6982,3.7083,3.7147,3.7222,3.7298,3.7351,3.7443,3.7556,3.7577,3.7693,3.7779,3.7923,3.7979,3.8072,3.8055,3.8088,3.8096,3.8103,3.8106,3.7911,3.8091,3.8091,3.8091,3.8091,3.809,0,3.6985,3.704,3.7133,3.7243,3.7322,3.7321,3.741,3.7476,3.7578,3.7657,3.7743,3.7869,3.7973,3.8044,3.815,3.821,3.8216,3.8236,3.8232,3.8244,3.8115,3.8085,3.823,3.8229,3.8229,3.8229,3.8229,3.8229,3.7079,3.7203,3.7234,3.7391,3.7445,3.7558,3.7609,3.7677,3.7741,3.788,3.7965,3.8011,3.8088,3.8199,3.8294,3.8313,3.8351,3.8371,3.8389,3.8268,3.8253,3.8239,3.8211,3.8379,3.8379,3.851,3.8511,3.8512]},{"header":{"parameterUnit":"m.s-1","parameterCategory":1,"la1":30.2991,"la2":30.254,"lo1":-89.0895,"lo2":-89.0444,"dy":0.0017,"dx":0.0017,"nx":28,"ny":28,"refTime":"2024-10-14T03:00:00:Z","depth":0,"parameterNumber":3,"parameterNumberName":"V-component_of_WINDS"},"data":[0,0,0,0,0,0,0,0,0,0,0,0,0,0,0,0,0,0,0,0,0,0,0,0,0,0,0,0,0,0,0,0,0,0,0,0,0,0,0,0,0,0,0,0,0,0,0,0,0,0,0,0,0,0,0,0,0,0,1.8382,1.8383,0,1.8446,1.8447,1.8448,1.8413,1.8411,1.8409,1.8407,1.8475,1.8478,1.8481,0,0,0,0,0,0,0,0,0,0,0,0,0,1.823,1.8233,1.8382,1.8383,1.8383,1.8446,1.8447,1.8448,1.8413,1.8411,1.8409,1.8407,1.8474,1.8478,1.8482,0,0,0,0,0,0,0,0,0,0,0,0,0,1.8295,1.8234,1.8382,1.8373,1.8373,1.8446,1.8447,1.8448,1.8413,1.8411,1.8408,1.8406,1.8472,1.8477,1.8482,1.8567,0,0,1.8498,1.85,0,0,0,0,0,0,0,0,1.8292,1.8301,1.8374,1.8374,1.8374,1.8419,1.8418,1.8488,1.8414,1.8398,1.8407,1.8404,1.8458,1.8464,1.8482,1.857,1.8573,1.8499,1.8502,1.8504,1.8505,0,0,0,0,0,0,0,1.8287,1.8298,1.8407,1.8375,1.8375,1.8367,1.8373,1.8431,1.8442,1.8399,1.8397,1.8405,1.8458,1.8477,1.8484,1.8574,1.8498,1.8503,1.8506,1.8508,1.8734,1.8737,0,0,0,0,0,0,1.8283,1.8294,1.8405,1.8409,1.8325,1.8372,1.8379,1.8407,1.8442,1.8444,1.8407,1.8403,1.847,1.8478,1.8486,1.8588,1.8504,1.8509,1.8512,1.8732,1.8735,1.8738,0,0,0,0,0,0,1.828,1.8293,1.8403,1.8351,1.8364,1.8377,1.8409,1.841,1.8429,1.8447,1.8449,1.8425,1.8468,1.8479,1.8547,1.8589,1.8511,1.8516,1.8728,1.8733,1.8737,1.8791,0,0,0,0,0,0,1.8276,1.8292,1.8324,1.8352,1.8367,1.8463,1.8412,1.8413,1.8438,1.8433,1.8465,1.8467,1.8467,1.8539,1.8552,1.8595,1.852,1.8724,1.873,1.8735,1.8786,1.8797,1.8807,0,0,0,0,0,1.827,1.8338,1.8326,1.834,1.8408,1.8465,1.8474,1.8472,1.8442,1.8474,1.8486,1.8466,1.8582,1.8547,1.8561,1.8606,1.8722,1.8729,1.8735,1.8781,1.8795,1.8807,0,0,0,0,0,0,1.8315,1.8341,1.8329,1.8407,1.8434,1.8459,1.85,1.8486,1.8523,1.8517,1.8512,1.852,1.8591,1.8605,1.8565,1.8689,1.8647,1.8657,1.8678,1.8691,1.8701,1.8697,1.8524,0,0,0,0,0,1.8334,1.8378,1.8398,1.8466,1.848,1.8488,1.8513,1.8508,1.8536,1.8548,1.8564,1.8593,1.8635,1.8664,1.8704,1.8787,1.8794,1.8825,1.8835,1.8844,1.8853,1.8898,1.8912,1.876,1.876,1.876,0,0,1.8374,1.8394,1.8422,1.8475,1.8496,1.8542,1.8498,1.8548,1.8583,1.8556,1.8621,1.8634,1.8666,1.8742,1.8776,1.8756,1.8896,1.8852,1.8859,1.8863,1.8906,1.892,1.8933,1.8764,1.8763,1.8763,0,0,1.847,1.8489,1.8547,1.8568,1.86,1.8604,1.8618,1.8645,1.8653,1.8718,1.8699,1.874,1.8813,1.8837,1.8858,1.8962,1.8946,1.8975,1.903,1.9074,1.9086,1.9097,1.9134,1.9148,1.8984,1.8984,1.8984,0,1.8516,1.8584,1.8579,1.8631,1.8655,1.8632,1.8691,1.8712,1.8755,1.8773,1.8749,1.884,1.886,1.8941,1.8966,1.8984,1.9,1.8972,1.9085,1.9095,1.9105,1.9141,1.9155,1.8987,1.8987,1.8986,1.8986,0,1.8639,1.8687,1.873,1.8772,1.8801,1.8856,1.8859,1.8889,1.8882,1.8889,1.8956,1.8978,1.9023,1.9042,1.9035,1.9122,1.9108,1.9085,1.9043,1.9123,1.9157,1.917,1.8992,1.8991,1.899,1.8989,0,0,1.8767,1.8804,1.882,1.8839,1.8871,1.8908,1.8962,1.9005,1.9031,1.9061,1.9107,1.9169,1.9147,1.9171,1.9167,1.9206,1.9287,1.9177,1.9178,1.9198,1.9385,1.9403,1.9419,1.9276,1.9279,1.9281,1.9382,0,1.8866,1.896,1.8957,1.9045,1.9089,1.9067,1.9114,1.9139,1.9147,1.9186,1.9195,1.9239,1.9207,1.9221,1.9258,1.927,1.9325,1.9262,1.9319,1.9321,1.9313,1.9436,1.9456,1.9551,1.9395,1.9397,1.9399,0,1.8994,1.9028,1.9121,1.9146,1.9164,1.9207,1.9246,1.9283,1.9311,1.9314,1.9341,1.933,1.9385,1.9341,1.9417,1.9374,1.9397,1.9406,1.9409,1.9415,1.9366,1.9447,1.9581,1.9595,1.9419,1.9418,1.9416,0,1.9079,1.9148,1.9212,1.9228,1.9259,1.929,1.9304,1.9329,1.9355,1.9389,1.9406,1.9446,1.9468,1.9499,1.95,1.9467,1.9577,1.9532,1.9582,1.9582,1.9607,1.9605,1.9747,1.962,1.962,1.9619,1.9619,0,1.919,1.9248,1.925,1.929,1.9354,1.9349,1.9412,1.9424,1.9446,1.9488,1.9471,1.9511,1.9509,1.9549,1.9549,1.9612,1.9622,1.9627,1.9626,1.9629,1.9629,1.9645,1.9639,1.9623,1.9622,1.9622,1.9621,0,1.9296,1.93,1.9369,1.9392,1.9399,1.9445,1.9466,1.9503,1.9509,1.9562,1.9574,1.9584,1.963,1.9634,1.9687,1.9688,1.9764,1.9756,1.9755,1.9754,1.9803,1.9799,1.9961,1.9983,1.9841,1.9842,1.9843,0,1.9367,1.9411,1.9439,1.9466,1.9482,1.9524,1.955,1.9547,1.9575,1.961,1.9644,1.9688,1.9723,1.9798,1.981,1.9851,1.9845,1.9899,1.9851,1.9852,1.9846,1.9844,1.9849,1.9909,1.991,1.9911,1.9912,0,1.9494,1.9493,1.9531,1.957,1.9602,1.9632,1.9661,1.9683,1.9683,1.9715,1.9762,1.979,1.9844,1.9889,1.9928,1.9943,1.9929,1.9927,1.9941,1.9944,1.9942,1.9945,1.9781,1.9924,1.9923,1.9922,1.9921,1.9921,1.9585,1.9623,1.9648,1.9691,1.9712,1.9739,1.9776,1.9786,1.9825,1.9868,1.9864,1.9916,1.9942,1.9994,2.0012,2.0053,2.0034,2.0054,2.0059,2.0064,2.007,1.9935,2.006,2.0059,2.0059,2.0059,2.0059,0,1.9711,1.9726,1.9766,1.9806,1.9839,1.9821,1.9851,1.9881,1.9927,1.9953,1.9988,2.0041,2.0084,2.0099,2.0141,2.0171,2.0165,2.0182,2.018,2.0184,2.0084,2.0068,2.0186,2.0186,2.0186,2.0186,2.0186,2.0186,1.9781,1.9844,1.9846,1.992,1.9934,1.9985,2.0004,2.0028,2.0049,2.0109,2.0145,2.0154,2.0175,2.0218,2.0257,2.026,2.0277,2.0297,2.0298,2.0204,2.0191,2.0179,2.0164,2.03,2.0301,2.0394,2.0395,2.0396]}]]